Terug naar catalogus

STARLINK-35917

ActiefCommunicatieVLEO
NORAD 66503·PAYLOAD·🇺🇸 United States

Gelanceerd Nov 15, 2025 vanaf Cape Canaveral Space Force Station

Loading…

Volgende Passages (komende 24 uur)

TLE

VersSource: CelesTrak SupGP

Epoch: Sep 14, 2026, 20:58 UTC

1 66503C 25263U   26257.87409722  .00015444  00000+0  55926-3 0  2573
2 66503  43.0042   2.4245 0001835 275.0994 333.9447 15.27577060    19

Volg STARLINK-35917 in realtime met AllMySat

Download on the App Store